Back to catalog

SL-16 DEB

AliveLEO
NORAD 39886·DEBRIS·🇷🇺 Russia

Launched Mar 26, 1993 from Baikonur Cosmodrome

Loading…

Next Passes (next 24 hours)

TLE

FreshSource: Space-Track

Epoch: Sep 14, 2026, 07:12 UTC

1 39886U 93016BL  26257.30030110  .00003038  00000-0  40595-3 0  9993
2 39886  71.0072 101.2950 0043559  60.4144 300.1342 14.79757728655473

Track SL-16 DEB in real time with AllMySat

Download on the App Store